Year,Month,Day,Hour,Minute,Value (Times are PST for temperature in C)
2010,07,09,00,00,23.70
2010,07,09,00,01,23.70
2010,07,09,00,02,23.70
2010,07,09,00,03,23.70
2010,07,09,00,04,23.80
2010,07,09,00,05,23.80
2010,07,09,00,06,23.80
2010,07,09,00,07,23.80
2010,07,09,00,08,23.80
2010,07,09,00,09,23.80
2010,07,09,00,10,23.80
2010,07,09,00,11,23.80
2010,07,09,00,12,23.70
2010,07,09,00,13,23.70
2010,07,09,00,14,23.70
2010,07,09,00,15,23.70
2010,07,09,00,16,23.70
2010,07,09,00,17,23.60
2010,07,09,00,18,23.60
2010,07,09,00,19,23.60
2010,07,09,00,20,23.60
2010,07,09,00,21,23.60
2010,07,09,00,22,23.60
2010,07,09,00,23,23.60
2010,07,09,00,24,23.60
2010,07,09,00,25,23.60
2010,07,09,00,26,23.60
2010,07,09,00,27,23.70
2010,07,09,00,28,23.70
2010,07,09,00,29,23.70
2010,07,09,00,30,23.80
2010,07,09,00,31,23.80
2010,07,09,00,32,23.80
2010,07,09,00,33,23.80
2010,07,09,00,34,23.80
2010,07,09,00,35,23.80
2010,07,09,00,36,23.80
2010,07,09,00,37,23.80
2010,07,09,00,38,23.80
2010,07,09,00,39,23.80
2010,07,09,00,40,23.80
2010,07,09,00,41,23.80
2010,07,09,00,42,23.80
2010,07,09,00,43,23.80
2010,07,09,00,44,23.80
2010,07,09,00,45,23.80
2010,07,09,00,46,23.80
2010,07,09,00,47,23.80
2010,07,09,00,48,23.80
2010,07,09,00,49,23.80
2010,07,09,00,50,23.80
2010,07,09,00,51,23.80
2010,07,09,00,52,23.80
2010,07,09,00,53,23.70
2010,07,09,00,54,23.70
2010,07,09,00,55,23.70
2010,07,09,00,56,23.70
2010,07,09,00,57,23.70
2010,07,09,00,58,23.70
2010,07,09,00,59,23.70
2010,07,09,01,00,23.70
2010,07,09,01,01,23.70
2010,07,09,01,02,23.70
2010,07,09,01,03,23.70
2010,07,09,01,04,23.70
2010,07,09,01,05,23.60
2010,07,09,01,06,23.60
2010,07,09,01,07,23.60
2010,07,09,01,08,23.60
2010,07,09,01,09,23.50
2010,07,09,01,10,23.50
2010,07,09,01,11,23.40
2010,07,09,01,12,23.40
2010,07,09,01,13,23.40
2010,07,09,01,14,23.40
2010,07,09,01,15,23.40
2010,07,09,01,16,23.40
2010,07,09,01,17,23.50
2010,07,09,01,18,23.50
2010,07,09,01,19,23.50
2010,07,09,01,20,23.60
2010,07,09,01,21,23.60
2010,07,09,01,22,23.70
2010,07,09,01,23,23.80
2010,07,09,01,24,23.80
2010,07,09,01,25,23.90
2010,07,09,01,26,23.90
2010,07,09,01,27,24.00
2010,07,09,01,28,24.00
2010,07,09,01,29,24.10
2010,07,09,01,30,24.10
2010,07,09,01,31,24.10
2010,07,09,01,32,24.10
2010,07,09,01,33,24.10
2010,07,09,01,34,24.10
2010,07,09,01,35,24.10
2010,07,09,01,36,24.10
2010,07,09,01,37,24.00
2010,07,09,01,38,24.00
2010,07,09,01,39,23.90
2010,07,09,01,40,23.90
2010,07,09,01,41,23.90
2010,07,09,01,42,23.90
2010,07,09,01,43,23.90
2010,07,09,01,44,23.90
2010,07,09,01,45,23.90
2010,07,09,01,46,23.90
2010,07,09,01,47,23.90
2010,07,09,01,48,23.90
2010,07,09,01,49,23.90
2010,07,09,01,50,23.90
2010,07,09,01,51,23.90
2010,07,09,01,52,23.90
2010,07,09,01,53,23.90
2010,07,09,01,54,23.80
2010,07,09,01,55,23.80
2010,07,09,01,56,23.80
2010,07,09,01,57,23.80
2010,07,09,01,58,23.80
2010,07,09,01,59,23.70
2010,07,09,02,00,23.70
2010,07,09,02,01,23.60
2010,07,09,02,02,23.50
2010,07,09,02,03,23.40
2010,07,09,02,04,23.30
2010,07,09,02,05,23.30
2010,07,09,02,06,23.20
2010,07,09,02,07,23.10
2010,07,09,02,08,23.10
2010,07,09,02,09,23.00
2010,07,09,02,10,23.00
2010,07,09,02,11,23.00
2010,07,09,02,12,22.90
2010,07,09,02,13,22.90
2010,07,09,02,14,22.90
2010,07,09,02,15,22.90
2010,07,09,02,16,22.80
2010,07,09,02,17,22.80
2010,07,09,02,18,22.80
2010,07,09,02,19,22.80
2010,07,09,02,20,22.70
2010,07,09,02,21,22.70
2010,07,09,02,22,22.60
2010,07,09,02,23,22.60
2010,07,09,02,24,22.60
2010,07,09,02,25,22.50
2010,07,09,02,26,22.50
2010,07,09,02,27,22.40
2010,07,09,02,28,22.40
2010,07,09,02,29,22.40
2010,07,09,02,30,22.40
2010,07,09,02,31,22.30
2010,07,09,02,32,22.30
2010,07,09,02,33,22.30
2010,07,09,02,34,22.30
2010,07,09,02,35,22.30
2010,07,09,02,36,22.20
2010,07,09,02,37,22.20
2010,07,09,02,38,22.20
2010,07,09,02,39,22.10
2010,07,09,02,40,22.10
2010,07,09,02,41,22.10
2010,07,09,02,42,22.00
2010,07,09,02,43,22.00
2010,07,09,02,44,21.90
2010,07,09,02,45,21.90
2010,07,09,02,46,21.90
2010,07,09,02,47,21.90
2010,07,09,02,48,21.80
2010,07,09,02,49,21.80
2010,07,09,02,50,21.80
2010,07,09,02,51,21.80
2010,07,09,02,52,21.70
2010,07,09,02,53,21.70
2010,07,09,02,54,21.70
2010,07,09,02,55,21.70
2010,07,09,02,56,21.70
2010,07,09,02,57,21.70
2010,07,09,02,58,21.60
2010,07,09,02,59,21.60
2010,07,09,03,00,21.60
2010,07,09,03,01,21.60
2010,07,09,03,02,21.50
2010,07,09,03,03,21.50
2010,07,09,03,04,21.40
2010,07,09,03,05,21.40
2010,07,09,03,06,21.40
2010,07,09,03,07,21.30
2010,07,09,03,08,21.30
2010,07,09,03,09,21.30
2010,07,09,03,10,21.30
2010,07,09,03,11,21.30
2010,07,09,03,12,21.20
2010,07,09,03,13,21.20
2010,07,09,03,14,21.20
2010,07,09,03,15,21.20
2010,07,09,03,16,21.20
2010,07,09,03,17,21.20
2010,07,09,03,18,21.20
2010,07,09,03,19,21.20
2010,07,09,03,20,21.20
2010,07,09,03,21,21.20
2010,07,09,03,22,21.20
2010,07,09,03,23,21.20
2010,07,09,03,24,21.20
2010,07,09,03,25,21.20
2010,07,09,03,26,21.20
2010,07,09,03,27,21.10
2010,07,09,03,28,21.10
2010,07,09,03,29,21.10
2010,07,09,03,30,21.10
2010,07,09,03,31,21.10
2010,07,09,03,32,21.10
2010,07,09,03,33,21.10
2010,07,09,03,34,21.00
2010,07,09,03,35,21.00
2010,07,09,03,36,21.00
2010,07,09,03,37,21.00
2010,07,09,03,38,21.00
2010,07,09,03,39,21.00
2010,07,09,03,40,21.00
2010,07,09,03,41,21.00
2010,07,09,03,42,21.00
2010,07,09,03,43,21.00
2010,07,09,03,44,21.00
2010,07,09,03,45,21.00
2010,07,09,03,46,21.00
2010,07,09,03,47,21.00
2010,07,09,03,48,21.00
2010,07,09,03,49,21.00
2010,07,09,03,50,21.00
2010,07,09,03,51,21.00
2010,07,09,03,52,20.90
2010,07,09,03,53,20.90
2010,07,09,03,54,20.90
2010,07,09,03,55,20.90
2010,07,09,03,56,20.90
2010,07,09,03,57,21.00
2010,07,09,03,58,21.00
2010,07,09,03,59,21.00
2010,07,09,04,00,21.00
2010,07,09,04,01,20.90
2010,07,09,04,02,20.90
2010,07,09,04,03,20.90
2010,07,09,04,04,20.90
2010,07,09,04,05,20.80
2010,07,09,04,06,20.80
2010,07,09,04,07,20.80
2010,07,09,04,08,20.70
2010,07,09,04,09,20.70
2010,07,09,04,10,20.70
2010,07,09,04,11,20.60
2010,07,09,04,12,20.60
2010,07,09,04,13,20.60
2010,07,09,04,14,20.60
2010,07,09,04,15,20.50
2010,07,09,04,16,20.50
2010,07,09,04,17,20.50
2010,07,09,04,18,20.40
2010,07,09,04,19,20.40
2010,07,09,04,20,20.40
2010,07,09,04,21,20.40
2010,07,09,04,22,20.40
2010,07,09,04,23,20.50
2010,07,09,04,24,20.40
2010,07,09,04,25,20.50
2010,07,09,04,26,20.50
2010,07,09,04,27,20.50
2010,07,09,04,28,20.50
2010,07,09,04,29,20.50
2010,07,09,04,30,20.50
2010,07,09,04,31,20.50
2010,07,09,04,32,20.50
2010,07,09,04,33,20.50
2010,07,09,04,34,20.50
2010,07,09,04,35,20.50
2010,07,09,04,36,20.50
2010,07,09,04,37,20.50
2010,07,09,04,38,20.50
2010,07,09,04,39,20.40
2010,07,09,04,40,20.40
2010,07,09,04,41,20.40
2010,07,09,04,42,20.30
2010,07,09,04,43,20.30
2010,07,09,04,44,20.20
2010,07,09,04,45,20.20
2010,07,09,04,46,20.20
2010,07,09,04,47,20.20
2010,07,09,04,48,20.10
2010,07,09,04,49,20.10
2010,07,09,04,50,20.10
2010,07,09,04,51,20.10
2010,07,09,04,52,20.00
2010,07,09,04,53,20.00
2010,07,09,04,54,20.00
2010,07,09,04,55,20.00
2010,07,09,04,56,20.00
2010,07,09,04,57,20.00
2010,07,09,04,58,20.00
2010,07,09,04,59,20.00
2010,07,09,05,00,19.90
2010,07,09,05,01,19.90
2010,07,09,05,02,19.90
2010,07,09,05,03,19.90
2010,07,09,05,04,19.80
2010,07,09,05,05,19.80
2010,07,09,05,06,19.80
2010,07,09,05,07,19.80
2010,07,09,05,08,19.80
2010,07,09,05,09,19.80
2010,07,09,05,10,19.80
2010,07,09,05,11,19.80
2010,07,09,05,12,19.80
2010,07,09,05,13,19.80
2010,07,09,05,14,19.80
2010,07,09,05,15,19.80
2010,07,09,05,16,19.80
2010,07,09,05,17,19.80
2010,07,09,05,18,19.80
2010,07,09,05,19,19.80
2010,07,09,05,20,19.80
2010,07,09,05,21,19.80
2010,07,09,05,22,19.80
2010,07,09,05,23,19.80
2010,07,09,05,24,19.80
2010,07,09,05,25,19.80
2010,07,09,05,26,19.80
2010,07,09,05,27,19.80
2010,07,09,05,28,19.80
2010,07,09,05,29,19.80
2010,07,09,05,30,19.80
2010,07,09,05,31,19.80
2010,07,09,05,32,19.80
2010,07,09,05,33,19.80
2010,07,09,05,34,19.80
2010,07,09,05,35,19.70
2010,07,09,05,36,19.70
2010,07,09,05,37,19.70
2010,07,09,05,38,19.70
2010,07,09,05,39,19.60
2010,07,09,05,40,19.60
2010,07,09,05,41,19.50
2010,07,09,05,42,19.40
2010,07,09,05,43,19.30
2010,07,09,05,44,19.20
2010,07,09,05,45,19.20
2010,07,09,05,46,19.10
2010,07,09,05,47,19.00
2010,07,09,05,48,18.90
2010,07,09,05,49,18.90
2010,07,09,05,50,18.80
2010,07,09,05,51,18.70
2010,07,09,05,52,18.70
2010,07,09,05,53,18.60
2010,07,09,05,54,18.50
2010,07,09,05,55,18.40
2010,07,09,05,56,18.40
2010,07,09,05,57,18.30
2010,07,09,05,58,18.20
2010,07,09,05,59,18.20
2010,07,09,06,00,18.10
2010,07,09,06,01,18.10
2010,07,09,06,02,18.00
2010,07,09,06,03,17.90
2010,07,09,06,04,17.90
2010,07,09,06,05,17.90
2010,07,09,06,06,17.80
2010,07,09,06,07,17.80
2010,07,09,06,08,17.80
2010,07,09,06,09,17.80
2010,07,09,06,10,17.70
2010,07,09,06,11,17.70
2010,07,09,06,12,17.70
2010,07,09,06,13,17.70
2010,07,09,06,14,17.70
2010,07,09,06,15,17.70
2010,07,09,06,16,17.70
2010,07,09,06,17,17.70
2010,07,09,06,18,17.70
2010,07,09,06,19,17.70
2010,07,09,06,20,17.70
2010,07,09,06,21,17.70
2010,07,09,06,22,17.70
2010,07,09,06,23,17.70
2010,07,09,06,24,17.70
2010,07,09,06,25,17.70
2010,07,09,06,26,17.70
2010,07,09,06,27,17.70
2010,07,09,06,28,17.70
2010,07,09,06,29,17.70
2010,07,09,06,30,17.70
2010,07,09,06,31,17.70
2010,07,09,06,32,17.70
2010,07,09,06,33,17.70
2010,07,09,06,34,17.70
2010,07,09,06,35,17.70
2010,07,09,06,36,17.70
2010,07,09,06,37,17.70
2010,07,09,06,38,17.70
2010,07,09,06,39,17.70
2010,07,09,06,40,17.70
2010,07,09,06,41,17.70
2010,07,09,06,42,17.70
2010,07,09,06,43,17.70
2010,07,09,06,44,17.70
2010,07,09,06,45,17.70
2010,07,09,06,46,17.70
2010,07,09,06,47,17.80
2010,07,09,06,48,17.80
2010,07,09,06,49,17.80
2010,07,09,06,50,17.80
2010,07,09,06,51,17.80
2010,07,09,06,52,17.80
2010,07,09,06,53,17.80
2010,07,09,06,54,17.80
2010,07,09,06,55,17.80
2010,07,09,06,56,17.80
2010,07,09,06,57,17.80
2010,07,09,06,58,17.80
2010,07,09,06,59,17.90
2010,07,09,07,00,17.90
2010,07,09,07,01,17.90
2010,07,09,07,02,17.90
2010,07,09,07,03,17.90
2010,07,09,07,04,18.00
2010,07,09,07,05,18.00
2010,07,09,07,06,18.00
2010,07,09,07,07,18.10
2010,07,09,07,08,18.10
2010,07,09,07,09,18.10
2010,07,09,07,10,18.20
2010,07,09,07,11,18.20
2010,07,09,07,12,18.20
2010,07,09,07,13,18.30
2010,07,09,07,14,18.30
2010,07,09,07,15,18.30
2010,07,09,07,16,18.40
2010,07,09,07,17,18.40
2010,07,09,07,18,18.50
2010,07,09,07,19,18.60
2010,07,09,07,20,18.60
2010,07,09,07,21,18.60
2010,07,09,07,22,18.70
2010,07,09,07,23,18.70
2010,07,09,07,24,18.80
2010,07,09,07,25,18.80
2010,07,09,07,26,18.90
2010,07,09,07,27,19.00
2010,07,09,07,28,19.10
2010,07,09,07,29,19.20
2010,07,09,07,30,19.30
2010,07,09,07,31,19.40
2010,07,09,07,32,19.40
2010,07,09,07,33,19.50
2010,07,09,07,34,19.50
2010,07,09,07,35,19.60
2010,07,09,07,36,19.60
2010,07,09,07,37,19.70
2010,07,09,07,38,19.70
2010,07,09,07,39,19.80
2010,07,09,07,40,19.80
2010,07,09,07,41,19.80
2010,07,09,07,42,19.90
2010,07,09,07,43,19.90
2010,07,09,07,44,20.00
2010,07,09,07,45,20.00
2010,07,09,07,46,20.10
2010,07,09,07,47,20.10
2010,07,09,07,48,20.10
2010,07,09,07,49,20.20
2010,07,09,07,50,20.20
2010,07,09,07,51,20.20
2010,07,09,07,52,20.30
2010,07,09,07,53,20.30
2010,07,09,07,54,20.30
2010,07,09,07,55,20.40
2010,07,09,07,56,20.50
2010,07,09,07,57,20.60
2010,07,09,07,58,20.60
2010,07,09,07,59,20.70
2010,07,09,08,00,20.80
2010,07,09,08,01,20.90
2010,07,09,08,02,21.00
2010,07,09,08,03,21.00
2010,07,09,08,04,21.10
2010,07,09,08,05,21.20
2010,07,09,08,06,21.30
2010,07,09,08,07,21.40
2010,07,09,08,08,21.40
2010,07,09,08,09,21.50
2010,07,09,08,10,21.60
2010,07,09,08,11,21.70
2010,07,09,08,12,21.70
2010,07,09,08,13,21.80
2010,07,09,08,14,21.80
2010,07,09,08,15,21.80
2010,07,09,08,16,21.90
2010,07,09,08,17,21.90
2010,07,09,08,18,22.00
2010,07,09,08,19,22.00
2010,07,09,08,20,22.10
2010,07,09,08,21,22.10
2010,07,09,08,22,22.20
2010,07,09,08,23,22.20
2010,07,09,08,24,22.20
2010,07,09,08,25,22.30
2010,07,09,08,26,22.30
2010,07,09,08,27,22.30
2010,07,09,08,28,22.40
2010,07,09,08,29,22.40
2010,07,09,08,30,22.50
2010,07,09,08,31,22.50
2010,07,09,08,32,22.50
2010,07,09,08,33,22.60
2010,07,09,08,34,22.60
2010,07,09,08,35,22.60
2010,07,09,08,36,22.60
2010,07,09,08,37,22.70
2010,07,09,08,38,22.70
2010,07,09,08,39,22.70
2010,07,09,08,40,22.70
2010,07,09,08,41,22.80
2010,07,09,08,42,22.80
2010,07,09,08,43,22.80
2010,07,09,08,44,22.90
2010,07,09,08,45,22.90
2010,07,09,08,46,22.90
2010,07,09,08,47,23.00
2010,07,09,08,48,23.10
2010,07,09,08,49,23.10
2010,07,09,08,50,23.10
2010,07,09,08,51,23.20
2010,07,09,08,52,23.20
2010,07,09,08,53,23.30
2010,07,09,08,54,23.30
2010,07,09,08,55,23.30
2010,07,09,08,56,23.40
2010,07,09,08,57,23.40
2010,07,09,08,58,23.50
2010,07,09,08,59,23.50
2010,07,09,09,00,23.60
2010,07,09,09,01,23.60
2010,07,09,09,02,23.70
2010,07,09,09,03,23.70
2010,07,09,09,04,23.70
2010,07,09,09,05,23.80
2010,07,09,09,06,23.80
2010,07,09,09,07,23.90
2010,07,09,09,08,23.90
2010,07,09,09,09,24.00
2010,07,09,09,10,24.10
2010,07,09,09,11,24.10
2010,07,09,09,12,24.20
2010,07,09,09,13,24.20
2010,07,09,09,14,24.30
2010,07,09,09,15,24.30
2010,07,09,09,16,24.30
2010,07,09,09,17,24.40
2010,07,09,09,18,24.40
2010,07,09,09,19,24.40
2010,07,09,09,20,24.50
2010,07,09,09,21,24.50
2010,07,09,09,22,24.50
2010,07,09,09,23,24.50
2010,07,09,09,24,24.60
2010,07,09,09,25,24.60
2010,07,09,09,26,24.60
2010,07,09,09,27,24.60
2010,07,09,09,28,24.60
2010,07,09,09,29,24.70
2010,07,09,09,30,24.70
2010,07,09,09,31,24.70
2010,07,09,09,32,24.70
2010,07,09,09,33,24.70
2010,07,09,09,34,24.70
2010,07,09,09,35,24.80
2010,07,09,09,36,24.80
2010,07,09,09,37,24.80
2010,07,09,09,38,24.80
2010,07,09,09,39,24.80
2010,07,09,09,40,24.80
2010,07,09,09,41,24.80
2010,07,09,09,42,24.90
2010,07,09,09,43,24.90
2010,07,09,09,44,24.90
2010,07,09,09,45,24.90
2010,07,09,09,46,24.90
2010,07,09,09,47,25.00
2010,07,09,09,48,25.00
2010,07,09,09,49,25.10
2010,07,09,09,50,25.10
2010,07,09,09,51,25.20
2010,07,09,09,52,25.20
2010,07,09,09,53,25.20
2010,07,09,09,54,25.20
2010,07,09,09,55,25.30
2010,07,09,09,56,25.30
2010,07,09,09,57,25.30
2010,07,09,09,58,25.30
2010,07,09,09,59,25.30
2010,07,09,10,00,25.30
2010,07,09,10,01,25.30
2010,07,09,10,02,25.40
2010,07,09,10,03,25.40
2010,07,09,10,04,25.40
2010,07,09,10,05,25.40
2010,07,09,10,06,25.40
2010,07,09,10,07,25.40
2010,07,09,10,08,25.40
2010,07,09,10,09,25.40
2010,07,09,10,10,25.40
2010,07,09,10,11,25.40
2010,07,09,10,12,25.40
2010,07,09,10,13,25.50
2010,07,09,10,14,25.60
2010,07,09,10,15,25.60
2010,07,09,10,16,25.60
2010,07,09,10,17,25.70
2010,07,09,10,18,25.70
2010,07,09,10,19,25.80
2010,07,09,10,20,25.80
2010,07,09,10,21,25.80
2010,07,09,10,22,25.80
2010,07,09,10,23,25.80
2010,07,09,10,24,25.80
2010,07,09,10,25,25.80
2010,07,09,10,26,25.90
2010,07,09,10,27,25.90
2010,07,09,10,28,25.90
2010,07,09,10,29,26.00
2010,07,09,10,30,26.00
2010,07,09,10,31,26.00
2010,07,09,10,32,26.10
2010,07,09,10,33,26.10
2010,07,09,10,34,26.10
2010,07,09,10,35,26.20
2010,07,09,10,36,26.20
2010,07,09,10,37,26.30
2010,07,09,10,38,26.30
2010,07,09,10,39,26.30
2010,07,09,10,40,26.40
2010,07,09,10,41,26.40
2010,07,09,10,42,26.40
2010,07,09,10,43,26.40
2010,07,09,10,44,26.40
2010,07,09,10,45,26.40
2010,07,09,10,46,26.40
2010,07,09,10,47,26.40
2010,07,09,10,48,26.40
2010,07,09,10,49,26.40
2010,07,09,10,50,26.50
2010,07,09,10,51,26.50
2010,07,09,10,52,26.60
2010,07,09,10,53,26.60
2010,07,09,10,54,26.70
2010,07,09,10,55,26.70
2010,07,09,10,56,26.80
2010,07,09,10,57,26.80
2010,07,09,10,58,26.80
2010,07,09,10,59,26.90
2010,07,09,11,00,26.90
2010,07,09,11,01,27.00
2010,07,09,11,02,27.00
2010,07,09,11,03,27.10
2010,07,09,11,04,27.10
2010,07,09,11,05,27.10
2010,07,09,11,06,27.20
2010,07,09,11,07,27.20
2010,07,09,11,08,27.20
2010,07,09,11,09,27.30
2010,07,09,11,10,27.30
2010,07,09,11,11,27.30
2010,07,09,11,12,27.30
2010,07,09,11,13,27.30
2010,07,09,11,14,27.30
2010,07,09,11,15,27.30
2010,07,09,11,16,27.30
2010,07,09,11,17,27.30
2010,07,09,11,18,27.40
2010,07,09,11,19,27.40
2010,07,09,11,20,27.50
2010,07,09,11,21,27.50
2010,07,09,11,22,27.60
2010,07,09,11,23,27.70
2010,07,09,11,24,27.70
2010,07,09,11,25,27.70
2010,07,09,11,26,27.80
2010,07,09,11,27,27.80
2010,07,09,11,28,27.80
2010,07,09,11,29,27.90
2010,07,09,11,30,27.90
2010,07,09,11,31,27.90
2010,07,09,11,32,27.90
2010,07,09,11,33,28.00
2010,07,09,11,34,28.00
2010,07,09,11,35,28.10
2010,07,09,11,36,28.10
2010,07,09,11,37,28.10
2010,07,09,11,38,28.10
2010,07,09,11,39,28.10
2010,07,09,11,40,28.10
2010,07,09,11,41,28.10
2010,07,09,11,42,28.10
2010,07,09,11,43,28.20
2010,07,09,11,44,28.20
2010,07,09,11,45,28.10
2010,07,09,11,46,28.10
2010,07,09,11,47,28.10
2010,07,09,11,48,28.10
2010,07,09,11,49,28.10
2010,07,09,11,50,28.20
2010,07,09,11,51,28.20
2010,07,09,11,52,28.20
2010,07,09,11,53,28.20
2010,07,09,11,54,28.20
2010,07,09,11,55,28.20
2010,07,09,11,56,28.20
2010,07,09,11,57,28.20
2010,07,09,11,58,28.10
2010,07,09,11,59,28.00
2010,07,09,12,00,28.00
2010,07,09,12,01,27.90
2010,07,09,12,02,27.90
2010,07,09,12,03,27.80
2010,07,09,12,04,27.80
2010,07,09,12,05,27.90
2010,07,09,12,06,27.90
2010,07,09,12,07,27.90
2010,07,09,12,08,27.90
2010,07,09,12,09,27.90
2010,07,09,12,10,27.90
2010,07,09,12,11,28.00
2010,07,09,12,12,28.10
2010,07,09,12,13,28.10
2010,07,09,12,14,28.20
2010,07,09,12,15,28.20
2010,07,09,12,16,28.30
2010,07,09,12,17,28.30
2010,07,09,12,18,28.30
2010,07,09,12,19,28.40
2010,07,09,12,20,28.40
2010,07,09,12,21,28.40
2010,07,09,12,22,28.50
2010,07,09,12,23,28.50
2010,07,09,12,24,28.60
2010,07,09,12,25,28.60
2010,07,09,12,26,28.60
2010,07,09,12,27,28.50
2010,07,09,12,28,28.50
2010,07,09,12,29,28.50
2010,07,09,12,30,28.50
2010,07,09,12,31,28.50
2010,07,09,12,32,28.50
2010,07,09,12,33,28.50
2010,07,09,12,34,28.50
2010,07,09,12,35,28.60
2010,07,09,12,36,28.60
2010,07,09,12,37,28.60
2010,07,09,12,38,28.60
2010,07,09,12,39,28.60
2010,07,09,12,40,28.60
2010,07,09,12,41,28.60
2010,07,09,12,42,28.60
2010,07,09,12,43,28.60
2010,07,09,12,44,28.70
2010,07,09,12,45,28.70
2010,07,09,12,46,28.70
2010,07,09,12,47,28.80
2010,07,09,12,48,28.80
2010,07,09,12,49,28.80
2010,07,09,12,50,28.80
2010,07,09,12,51,28.80
2010,07,09,12,52,28.80
2010,07,09,12,53,28.80
2010,07,09,12,54,28.80
2010,07,09,12,55,28.70
2010,07,09,12,56,28.70
2010,07,09,12,57,28.70
2010,07,09,12,58,28.60
2010,07,09,12,59,28.60
2010,07,09,13,00,28.60
2010,07,09,13,01,28.70
2010,07,09,13,02,28.70
2010,07,09,13,03,28.70
2010,07,09,13,04,28.70
2010,07,09,13,05,28.70
2010,07,09,13,06,28.80
2010,07,09,13,07,28.80
2010,07,09,13,08,28.80
2010,07,09,13,09,28.80
2010,07,09,13,10,28.80
2010,07,09,13,11,28.90
2010,07,09,13,12,28.90
2010,07,09,13,13,28.90
2010,07,09,13,14,28.80
2010,07,09,13,15,28.80
2010,07,09,13,16,28.70
2010,07,09,13,17,28.70
2010,07,09,13,18,28.70
2010,07,09,13,19,28.70
2010,07,09,13,20,28.70
2010,07,09,13,21,28.70
2010,07,09,13,22,28.70
2010,07,09,13,23,28.60
2010,07,09,13,24,28.60
2010,07,09,13,25,28.50
2010,07,09,13,26,28.50
2010,07,09,13,27,28.40
2010,07,09,13,28,28.30
2010,07,09,13,29,28.30
2010,07,09,13,30,28.30
2010,07,09,13,31,28.30
2010,07,09,13,32,28.30
2010,07,09,13,33,28.20
2010,07,09,13,34,28.20
2010,07,09,13,35,28.10
2010,07,09,13,36,28.10
2010,07,09,13,37,28.00
2010,07,09,13,38,27.90
2010,07,09,13,39,27.90
2010,07,09,13,40,27.80
2010,07,09,13,41,27.80
2010,07,09,13,42,27.80
2010,07,09,13,43,27.70
2010,07,09,13,44,27.70
2010,07,09,13,45,27.70
2010,07,09,13,46,27.70
2010,07,09,13,47,27.60
2010,07,09,13,48,27.60
2010,07,09,13,49,27.60
2010,07,09,13,50,27.60
2010,07,09,13,51,27.60
2010,07,09,13,52,27.60
2010,07,09,13,53,27.60
2010,07,09,13,54,27.60
2010,07,09,13,55,27.60
2010,07,09,13,56,27.60
2010,07,09,13,57,27.60
2010,07,09,13,58,27.60
2010,07,09,13,59,27.70
2010,07,09,14,00,27.70
2010,07,09,14,01,27.60
2010,07,09,14,02,27.60
2010,07,09,14,03,27.60
2010,07,09,14,04,27.60
2010,07,09,14,05,27.60
2010,07,09,14,06,27.70
2010,07,09,14,07,27.70
2010,07,09,14,08,27.70
2010,07,09,14,09,27.80
2010,07,09,14,10,27.80
2010,07,09,14,11,27.80
2010,07,09,14,12,27.80
2010,07,09,14,13,27.80
2010,07,09,14,14,27.80
2010,07,09,14,15,27.80
2010,07,09,14,16,27.90
2010,07,09,14,17,27.90
2010,07,09,14,18,27.90
2010,07,09,14,19,27.90
2010,07,09,14,20,27.80
2010,07,09,14,21,27.80
2010,07,09,14,22,27.70
2010,07,09,14,23,27.70
2010,07,09,14,24,27.70
2010,07,09,14,25,27.60
2010,07,09,14,26,27.60
2010,07,09,14,27,27.70
2010,07,09,14,28,27.70
2010,07,09,14,29,27.70
2010,07,09,14,30,27.80
2010,07,09,14,31,27.80
2010,07,09,14,32,27.80
2010,07,09,14,33,27.80
2010,07,09,14,34,27.90
2010,07,09,14,35,27.90
2010,07,09,14,36,28.00
2010,07,09,14,37,28.10
2010,07,09,14,38,28.20
2010,07,09,14,39,28.30
2010,07,09,14,40,28.40
2010,07,09,14,41,28.40
2010,07,09,14,42,28.50
2010,07,09,14,43,28.60
2010,07,09,14,44,28.60
2010,07,09,14,45,28.70
2010,07,09,14,46,28.70
2010,07,09,14,47,28.70
2010,07,09,14,48,28.80
2010,07,09,14,49,28.80
2010,07,09,14,50,28.80
2010,07,09,14,51,28.80
2010,07,09,14,52,28.90
2010,07,09,14,53,29.00
2010,07,09,14,54,29.10
2010,07,09,14,55,29.20
2010,07,09,14,56,29.30
2010,07,09,14,57,29.30
2010,07,09,14,58,29.40
2010,07,09,14,59,29.40
2010,07,09,15,00,29.40
2010,07,09,15,01,29.30
2010,07,09,15,02,29.30
2010,07,09,15,03,29.20
2010,07,09,15,04,29.20
2010,07,09,15,05,29.20
2010,07,09,15,06,29.20
2010,07,09,15,07,29.20
2010,07,09,15,08,29.20
2010,07,09,15,09,29.20
2010,07,09,15,10,29.10
2010,07,09,15,11,29.10
2010,07,09,15,12,29.20
2010,07,09,15,13,29.20
2010,07,09,15,14,29.20
2010,07,09,15,15,29.20
2010,07,09,15,16,29.30
2010,07,09,15,17,29.30
2010,07,09,15,18,29.30
2010,07,09,15,19,29.20
2010,07,09,15,20,29.20
2010,07,09,15,21,29.20
2010,07,09,15,22,29.10
2010,07,09,15,23,29.00
2010,07,09,15,24,29.00
2010,07,09,15,25,28.90
2010,07,09,15,26,28.90
2010,07,09,15,27,29.00
2010,07,09,15,28,29.00
2010,07,09,15,29,29.00
2010,07,09,15,30,29.00
2010,07,09,15,31,29.00
2010,07,09,15,32,29.10
2010,07,09,15,33,29.00
2010,07,09,15,34,29.10
2010,07,09,15,35,29.10
2010,07,09,15,36,29.10
2010,07,09,15,37,29.10
2010,07,09,15,38,29.10
2010,07,09,15,39,29.10
2010,07,09,15,40,29.10
2010,07,09,15,41,29.10
2010,07,09,15,42,29.10
2010,07,09,15,43,29.10
2010,07,09,15,44,29.10
2010,07,09,15,45,29.00
2010,07,09,15,46,28.90
2010,07,09,15,47,28.90
2010,07,09,15,48,28.80
2010,07,09,15,49,28.80
2010,07,09,15,50,28.80
2010,07,09,15,51,28.80
2010,07,09,15,52,28.70
2010,07,09,15,53,28.70
2010,07,09,15,54,28.70
2010,07,09,15,55,28.80
2010,07,09,15,56,28.70
2010,07,09,15,57,28.70
2010,07,09,15,58,28.70
2010,07,09,15,59,28.70
2010,07,09,16,00,28.60
2010,07,09,16,01,28.60
2010,07,09,16,02,28.60
2010,07,09,16,03,28.60
2010,07,09,16,04,28.60
2010,07,09,16,05,28.50
2010,07,09,16,06,28.40
2010,07,09,16,07,28.40
2010,07,09,16,08,28.30
2010,07,09,16,09,28.30
2010,07,09,16,10,28.30
2010,07,09,16,11,28.30
2010,07,09,16,12,28.40
2010,07,09,16,13,28.40
2010,07,09,16,14,28.40
2010,07,09,16,15,28.40
2010,07,09,16,16,28.40
2010,07,09,16,17,28.40
2010,07,09,16,18,28.40
2010,07,09,16,19,28.40
2010,07,09,16,20,28.40
2010,07,09,16,21,28.40
2010,07,09,16,22,28.40
2010,07,09,16,23,28.40
2010,07,09,16,24,28.40
2010,07,09,16,25,28.30
2010,07,09,16,26,28.30
2010,07,09,16,27,28.30
2010,07,09,16,28,28.30
2010,07,09,16,29,28.30
2010,07,09,16,30,28.30
2010,07,09,16,31,28.30
2010,07,09,16,32,28.30
2010,07,09,16,33,28.30
2010,07,09,16,34,28.40
2010,07,09,16,35,28.40
2010,07,09,16,36,28.50
2010,07,09,16,37,28.50
2010,07,09,16,38,28.50
2010,07,09,16,39,28.60
2010,07,09,16,40,28.60
2010,07,09,16,41,28.60
2010,07,09,16,42,28.60
2010,07,09,16,43,28.70
2010,07,09,16,44,28.60
2010,07,09,16,45,28.60
2010,07,09,16,46,28.60
2010,07,09,16,47,28.60
2010,07,09,16,48,28.60
2010,07,09,16,49,28.70
2010,07,09,16,50,28.70
2010,07,09,16,51,28.70
2010,07,09,16,52,28.80
2010,07,09,16,53,28.80
2010,07,09,16,54,28.80
2010,07,09,16,55,28.90
2010,07,09,16,56,28.90
2010,07,09,16,57,28.90
2010,07,09,16,58,28.90
2010,07,09,16,59,29.00
2010,07,09,17,00,29.00
2010,07,09,17,01,29.00
2010,07,09,17,02,29.00
2010,07,09,17,03,29.00
2010,07,09,17,04,29.00
2010,07,09,17,05,29.10
2010,07,09,17,06,29.10
2010,07,09,17,07,29.10
2010,07,09,17,08,29.00
2010,07,09,17,09,29.00
2010,07,09,17,10,29.00
2010,07,09,17,11,28.90
2010,07,09,17,12,28.90
2010,07,09,17,13,28.90
2010,07,09,17,14,28.80
2010,07,09,17,15,28.70
2010,07,09,17,16,28.70
2010,07,09,17,17,28.60
2010,07,09,17,18,28.50
2010,07,09,17,19,28.50